GEFSSGP_prec_meanprecacc_060.txt.gz
Total_Precipitation_Accumulation
0.00 0.02 0.10 0.13 0.07 0.07 0.06 0.01 0.00 0.00 0.00 0.00 0.00 0.00 0.00 0.00 0.01 0.04 0.00 0.00 0.00 0.00 0.00 0.01 0.01 0.00 0.00 0.00 0.00 0.00 0.00 0.00 0.00 0.00 0.00 0.00 0.00 0.00 0.00 0.00 0.01 0.01 0.01 0.00 0.00 0.00 0.00 0.00 0.00
0.00 0.01 0.06 0.08 0.09 0.17 0.08 0.01 0.00 0.00 0.00 0.00 0.00 0.00 0.00 0.00 0.00 0.00 0.00 0.00 0.00 0.00 0.00 0.00 0.01 0.00 0.00 0.00 0.00 0.00 0.00 0.00 0.00 0.00 0.00 0.00 0.00 0.00 0.01 0.01 0.01 0.01 0.01 0.00 0.00 0.00 0.00 0.00 0.00
0.00 0.00 0.03 0.05 0.10 0.20 0.14 0.03 0.01 0.00 0.00 0.00 0.00 0.00 0.00 0.00 0.00 0.00 0.00 0.00 0.00 0.00 0.00 0.00 0.00 0.00 0.00 0.00 0.00 0.00 0.00 0.00 0.00 0.00 0.00 0.00 0.01 0.01 0.01 0.01 0.01 0.01 0.01 0.00 0.00 0.00 0.00 0.00 0.01
0.00 0.00 0.01 0.02 0.06 0.13 0.11 0.06 0.03 0.01 0.01 0.00 0.00 0.00 0.00 0.00 0.00 0.00 0.00 0.00 0.00 0.00 0.00 0.00 0.00 0.00 0.00 0.00 0.00 0.00 0.00 0.00 0.01 0.00 0.00 0.00 0.01 0.01 0.01 0.01 0.01 0.01 0.01 0.00 0.01 0.00 0.00 0.00 0.01
0.00 0.00 0.00 0.01 0.04 0.12 0.13 0.10 0.06 0.03 0.01 0.00 0.00 0.00 0.00 0.00 0.00 0.00 0.00 0.00 0.00 0.00 0.00 0.00 0.00 0.00 0.00 0.00 0.00 0.00 0.01 0.00 0.00 0.00 0.00 0.00 0.00 0.01 0.01 0.01 0.00 0.01 0.01 0.00 0.01 0.01 0.01 0.01 0.00
0.00 0.00 0.00 0.01 0.03 0.07 0.10 0.08 0.06 0.04 0.01 0.01 0.00 0.00 0.00 0.00 0.00 0.00 0.00 0.00 0.00 0.00 0.00 0.00 0.01 0.00 0.00 0.00 0.00 0.00 0.00 0.00 0.00 0.00 0.00 0.00 0.00 0.01 0.02 0.02 0.01 0.01 0.01 0.02 0.01 0.01 0.01 0.01 0.02
0.00 0.00 0.00 0.00 0.01 0.03 0.06 0.06 0.05 0.04 0.03 0.02 0.01 0.01 0.01 0.00 0.00 0.00 0.00 0.00 0.00 0.00 0.00 0.00 0.00 0.00 0.00 0.00 0.00 0.00 0.00 0.00 0.00 0.00 0.01 0.01 0.01 0.02 0.04 0.05 0.05 0.04 0.03 0.04 0.02 0.01 0.01 0.02 0.03
0.00 0.00 0.00 0.00 0.01 0.01 0.02 0.03 0.03 0.03 0.02 0.02 0.01 0.02 0.02 0.00 0.00 0.00 0.00 0.00 0.00 0.00 0.00 0.00 0.01 0.00 0.00 0.00 0.00 0.00 0.00 0.01 0.00 0.01 0.01 0.01 0.01 0.03 0.04 0.05 0.07 0.10 0.10 0.10 0.08 0.05 0.03 0.04 0.04
0.00 0.00 0.00 0.00 0.00 0.00 0.01 0.02 0.02 0.01 0.01 0.01 0.01 0.02 0.02 0.00 0.00 0.00 0.00 0.00 0.01 0.01 0.01 0.01 0.01 0.01 0.01 0.01 0.01 0.01 0.02 0.02 0.01 0.02 0.02 0.02 0.02 0.03 0.09 0.13 0.18 0.20 0.21 0.20 0.16 0.12 0.12 0.12 0.07
0.00 0.00 0.00 0.00 0.00 0.00 0.00 0.01 0.01 0.01 0.01 0.01 0.02 0.04 0.03 0.01 0.00 0.00 0.00 0.00 0.01 0.01 0.01 0.01 0.01 0.02 0.02 0.01 0.02 0.02 0.02 0.04 0.04 0.05 0.09 0.12 0.17 0.15 0.09 0.18 0.34 0.39 0.47 0.43 0.40 0.41 0.31 0.21 0.16
0.00 0.00 0.00 0.00 0.00 0.00 0.00 0.00 0.00 0.00 0.01 0.02 0.07 0.10 0.07 0.02 0.00 0.00 0.00 0.00 0.00 0.01 0.01 0.01 0.02 0.03 0.03 0.02 0.02 0.03 0.03 0.09 0.09 0.09 0.16 0.27 0.27 0.19 0.15 0.17 0.31 0.44 0.49 0.40 0.57 0.70 0.47 0.43 0.55
0.00 0.00 0.00 0.00 0.00 0.00 0.00 0.00 0.00 0.00 0.00 0.01 0.04 0.09 0.12 0.07 0.01 0.00 0.00 0.00 0.01 0.02 0.02 0.02 0.02 0.03 0.04 0.04 0.04 0.05 0.06 0.09 0.10 0.15 0.18 0.27 0.30 0.25 0.22 0.25 0.26 0.31 0.38 0.54 0.67 0.76 0.71 0.72 0.70
0.00 0.00 0.00 0.00 0.00 0.00 0.00 0.00 0.00 0.00 0.00 0.00 0.01 0.01 0.03 0.04 0.03 0.03 0.02 0.02 0.03 0.04 0.06 0.06 0.05 0.07 0.11 0.13 0.14 0.12 0.13 0.16 0.18 0.22 0.25 0.29 0.38 0.35 0.35 0.34 0.34 0.31 0.40 0.58 0.74 0.74 0.81 0.90 0.88
0.00 0.00 0.00 0.00 0.00 0.00 0.00 0.00 0.00 0.00 0.00 0.00 0.00 0.01 0.01 0.01 0.03 0.06 0.07 0.10 0.11 0.14 0.20 0.25 0.25 0.29 0.32 0.33 0.33 0.30 0.31 0.34 0.34 0.38 0.38 0.41 0.48 0.53 0.53 0.46 0.48 0.43 0.48 0.58 0.74 0.79 0.97 0.96 0.98
0.00 0.00 0.00 0.00 0.00 0.00 0.00 0.00 0.00 0.00 0.00 0.00 0.00 0.01 0.01 0.02 0.03 0.06 0.09 0.13 0.23 0.32 0.43 0.58 0.71 0.78 0.77 0.69 0.58 0.55 0.60 0.64 0.64 0.65 0.68 0.73 0.76 0.79 0.78 0.66 0.60 0.69 0.77 0.80 0.85 0.92 1.04 0.99 0.94
0.00 0.00 0.00 0.00 0.00 0.00 0.00 0.00 0.00 0.00 0.00 0.01 0.02 0.02 0.03 0.03 0.06 0.09 0.15 0.23 0.35 0.50 0.67 0.96 1.31 1.38 1.29 1.16 1.03 0.95 0.94 0.95 0.95 0.96 1.02 1.07 1.07 1.03 0.95 0.75 0.68 0.95 1.00 1.00 1.07 1.09 1.14 1.23 1.22
0.00 0.00 0.00 0.00 0.00 0.00 0.00 0.00 0.01 0.00 0.01 0.02 0.05 0.05 0.06 0.06 0.11 0.20 0.36 0.54 0.66 0.84 1.22 1.72 1.91 1.97 1.98 1.76 1.58 1.47 1.40 1.30 1.25 1.31 1.23 1.24 1.29 1.20 1.17 0.88 0.81 1.09 1.20 1.16 1.13 1.28 1.44 1.41 1.42
0.00 0.00 0.00 0.00 0.00 0.00 0.00 0.00 0.01 0.03 0.05 0.06 0.06 0.09 0.12 0.15 0.25 0.39 0.57 0.75 0.93 1.30 1.80 2.18 2.42 2.58 2.55 2.50 2.27 1.93 1.69 1.48 1.45 1.41 1.27 1.17 1.11 1.19 1.35 1.03 0.99 1.22 1.24 1.18 1.29 1.41 1.53 1.42 1.48
0.00 0.00 0.00 0.00 0.00 0.00 0.00 0.00 0.01 0.01 0.04 0.09 0.12 0.14 0.20 0.36 0.50 0.57 0.74 0.93 1.17 1.56 1.91 2.38 2.67 2.74 2.72 2.74 2.46 2.06 1.70 1.53 1.40 1.29 1.19 1.17 1.19 1.27 1.48 1.23 1.20 1.25 1.15 1.09 1.27 1.38 1.31 1.19 1.56
0.00 0.00 0.00 0.00 0.00 0.00 0.00 0.00 0.02 0.03 0.06 0.11 0.18 0.28 0.40 0.56 0.71 0.84 1.03 1.16 1.22 1.40 1.77 2.11 2.16 1.98 1.86 1.84 1.82 1.69 1.62 1.48 1.35 1.31 1.33 1.28 1.30 1.33 1.38 1.33 1.22 1.19 1.12 0.97 0.99 1.17 1.08 0.86 1.25
0.00 0.00 0.00 0.00 0.00 0.00 0.00 0.01 0.03 0.06 0.11 0.21 0.34 0.54 0.69 0.78 0.91 1.02 1.11 1.17 1.17 1.21 1.37 1.50 1.39 1.27 1.24 1.33 1.43 1.48 1.59 1.51 1.50 1.56 1.60 1.46 1.47 1.44 1.48 1.35 1.20 1.12 1.10 0.92 0.85 0.99 1.03 0.85 0.94
0.00 0.00 0.00 0.00 0.00 0.00 0.01 0.03 0.04 0.06 0.15 0.30 0.47 0.61 0.68 0.74 0.80 0.85 0.86 0.96 0.98 0.97 1.05 1.20 1.18 1.13 1.21 1.43 1.52 1.56 1.70 1.82 1.96 2.15 2.09 1.93 1.76 1.62 1.52 1.32 1.13 0.96 0.93 0.83 0.78 0.86 0.93 0.95 0.77
0.00 0.00 0.00 0.00 0.00 0.01 0.01 0.04 0.07 0.09 0.19 0.39 0.52 0.63 0.67 0.72 0.74 0.71 0.75 0.85 0.91 0.83 0.87 1.06 1.18 1.31 1.50 1.68 1.78 1.87 1.95 2.03 2.03 2.05 1.95 1.83 1.74 1.60 1.43 1.27 1.11 0.99 0.88 0.79 0.75 0.73 0.74 0.77 0.70
0.01 0.01 0.01 0.01 0.02 0.07 0.08 0.08 0.13 0.17 0.32 0.41 0.38 0.43 0.52 0.54 0.53 0.54 0.62 0.87 1.10 1.07 1.00 1.05 1.21 1.39 1.55 1.64 1.72 1.74 1.72 1.69 1.60 1.49 1.38 1.30 1.26 1.21 1.14 1.05 0.92 0.84 0.81 0.78 0.73 0.68 0.65 0.64 0.66
0.02 0.01 0.01 0.03 0.10 0.17 0.15 0.12 0.22 0.34 0.46 0.45 0.51 0.55 0.41 0.35 0.42 0.40 0.38 0.45 0.52 0.59 0.62 0.64 0.69 0.87 1.00 1.09 1.13 1.15 1.14 1.07 0.98 0.91 0.84 0.77 0.72 0.67 0.64 0.65 0.66 0.66 0.66 0.64 0.64 0.60 0.58 0.59 0.60
0.03 0.01 0.02 0.04 0.04 0.07 0.09 0.16 0.29 0.37 0.35 0.38 0.44 0.38 0.24 0.19 0.19 0.18 0.16 0.17 0.30 0.45 0.56 0.60 0.56 0.54 0.55 0.59 0.63 0.60 0.61 0.59 0.57 0.61 0.56 0.52 0.52 0.49 0.46 0.48 0.51 0.52 0.56 0.56 0.58 0.58 0.55 0.55 0.55
0.03 0.02 0.03 0.03 0.03 0.04 0.09 0.20 0.26 0.31 0.35 0.35 0.25 0.16 0.12 0.10 0.07 0.07 0.07 0.08 0.16 0.30 0.39 0.41 0.43 0.46 0.49 0.51 0.48 0.41 0.37 0.37 0.38 0.41 0.42 0.45 0.49 0.44 0.44 0.47 0.51 0.54 0.58 0.59 0.56 0.56 0.57 0.64 0.67
0.04 0.03 0.02 0.03 0.04 0.04 0.05 0.22 0.36 0.36 0.37 0.29 0.20 0.16 0.09 0.05 0.03 0.03 0.03 0.04 0.07 0.14 0.24 0.32 0.37 0.41 0.46 0.50 0.48 0.41 0.34 0.29 0.29 0.33 0.39 0.42 0.41 0.42 0.46 0.48 0.53 0.55 0.54 0.53 0.51 0.51 0.54 0.63 0.72
0.04 0.04 0.03 0.03 0.03 0.06 0.08 0.19 0.24 0.27 0.25 0.22 0.16 0.09 0.04 0.02 0.01 0.02 0.07 0.12 0.18 0.28 0.37 0.43 0.45 0.42 0.43 0.45 0.44 0.41 0.36 0.33 0.32 0.34 0.36 0.38 0.38 0.39 0.43 0.47 0.49 0.50 0.50 0.49 0.51 0.53 0.58 0.64 0.69
0.04 0.03 0.03 0.03 0.03 0.03 0.07 0.18 0.11 0.11 0.10 0.08 0.05 0.03 0.02 0.01 0.02 0.06 0.13 0.20 0.25 0.33 0.42 0.47 0.52 0.54 0.56 0.60 0.65 0.71 0.69 0.62 0.53 0.41 0.37 0.40 0.45 0.45 0.46 0.48 0.50 0.49 0.51 0.58 0.63 0.62 0.68 0.72 0.73

GEFSSGP_prec_meanprecacc_066.txt.gz
Total_Precipitation_Accumulation
0.00 0.02 0.10 0.13 0.11 0.18 0.19 0.05 0.01 0.00 0.00 0.00 0.00 0.00 0.00 0.00 0.01 0.05 0.00 0.00 0.00 0.00 0.00 0.01 0.01 0.00 0.00 0.00 0.00 0.00 0.00 0.00 0.00 0.00 0.00 0.01 0.00 0.00 0.00 0.01 0.01 0.01 0.01 0.01 0.01 0.01 0.01 0.00 0.00
0.00 0.01 0.06 0.08 0.16 0.38 0.24 0.05 0.01 0.00 0.00 0.00 0.00 0.00 0.00 0.00 0.00 0.00 0.00 0.00 0.00 0.00 0.00 0.00 0.01 0.00 0.00 0.00 0.00 0.00 0.00 0.00 0.00 0.01 0.01 0.01 0.01 0.01 0.01 0.01 0.01 0.01 0.01 0.01 0.01 0.00 0.00 0.00 0.00
0.00 0.00 0.03 0.05 0.13 0.28 0.18 0.04 0.01 0.00 0.00 0.00 0.00 0.00 0.00 0.00 0.00 0.00 0.00 0.00 0.00 0.00 0.00 0.00 0.00 0.00 0.00 0.00 0.00 0.01 0.01 0.01 0.01 0.01 0.01 0.01 0.01 0.01 0.01 0.01 0.01 0.01 0.01 0.01 0.00 0.00 0.00 0.00 0.01
0.00 0.00 0.01 0.02 0.07 0.14 0.11 0.06 0.03 0.01 0.01 0.00 0.00 0.00 0.00 0.00 0.00 0.00 0.00 0.00 0.00 0.00 0.00 0.00 0.00 0.00 0.00 0.00 0.00 0.01 0.01 0.01 0.01 0.01 0.01 0.01 0.01 0.01 0.01 0.01 0.01 0.01 0.01 0.00 0.01 0.00 0.00 0.00 0.01
0.00 0.00 0.00 0.01 0.04 0.12 0.13 0.10 0.06 0.03 0.01 0.00 0.00 0.00 0.01 0.00 0.00 0.00 0.00 0.00 0.00 0.00 0.00 0.00 0.00 0.00 0.00 0.00 0.01 0.01 0.01 0.01 0.01 0.01 0.01 0.01 0.01 0.01 0.01 0.01 0.01 0.01 0.01 0.01 0.01 0.01 0.01 0.01 0.01
0.00 0.00 0.00 0.01 0.03 0.07 0.10 0.08 0.06 0.04 0.01 0.01 0.01 0.01 0.01 0.00 0.00 0.00 0.00 0.00 0.00 0.00 0.00 0.00 0.01 0.00 0.00 0.00 0.00 0.01 0.01 0.01 0.01 0.01 0.01 0.01 0.01 0.01 0.02 0.03 0.02 0.01 0.02 0.02 0.01 0.01 0.02 0.02 0.02
0.00 0.00 0.00 0.00 0.01 0.03 0.06 0.06 0.05 0.04 0.03 0.02 0.01 0.01 0.02 0.03 0.00 0.00 0.00 0.00 0.00 0.00 0.00 0.00 0.00 0.00 0.00 0.00 0.00 0.01 0.01 0.01 0.01 0.01 0.01 0.01 0.01 0.02 0.04 0.05 0.05 0.04 0.03 0.04 0.03 0.01 0.01 0.02 0.03
0.00 0.00 0.00 0.00 0.01 0.01 0.02 0.03 0.03 0.03 0.02 0.02 0.01 0.02 0.06 0.05 0.01 0.00 0.00 0.00 0.00 0.00 0.00 0.00 0.01 0.00 0.00 0.00 0.00 0.00 0.01 0.01 0.01 0.01 0.01 0.01 0.01 0.03 0.04 0.05 0.07 0.10 0.10 0.10 0.08 0.05 0.04 0.04 0.04
0.00 0.00 0.00 0.00 0.00 0.00 0.01 0.02 0.02 0.01 0.01 0.01 0.01 0.03 0.04 0.02 0.00 0.00 0.00 0.00 0.01 0.01 0.01 0.01 0.01 0.01 0.01 0.01 0.01 0.02 0.02 0.02 0.02 0.02 0.02 0.02 0.02 0.03 0.10 0.14 0.18 0.20 0.22 0.21 0.17 0.13 0.13 0.13 0.08
0.00 0.00 0.00 0.00 0.00 0.00 0.00 0.01 0.01 0.01 0.02 0.03 0.05 0.05 0.03 0.01 0.00 0.00 0.00 0.00 0.01 0.01 0.01 0.01 0.01 0.02 0.02 0.01 0.02 0.03 0.03 0.05 0.04 0.06 0.10 0.13 0.18 0.15 0.09 0.20 0.36 0.41 0.48 0.44 0.41 0.42 0.33 0.22 0.18
0.00 0.00 0.00 0.00 0.00 0.00 0.00 0.00 0.00 0.00 0.02 0.08 0.14 0.15 0.08 0.02 0.00 0.00 0.00 0.00 0.00 0.01 0.01 0.01 0.02 0.03 0.03 0.03 0.03 0.03 0.04 0.12 0.11 0.11 0.19 0.31 0.31 0.21 0.16 0.19 0.35 0.47 0.51 0.41 0.60 0.73 0.49 0.47 0.62
0.00 0.00 0.00 0.00 0.00 0.00 0.00 0.00 0.00 0.00 0.01 0.02 0.04 0.10 0.13 0.07 0.02 0.01 0.01 0.01 0.01 0.02 0.02 0.03 0.02 0.04 0.05 0.06 0.06 0.06 0.07 0.12 0.14 0.22 0.26 0.35 0.38 0.31 0.27 0.30 0.30 0.38 0.45 0.60 0.73 0.85 0.80 0.84 0.83
0.00 0.00 0.00 0.00 0.00 0.00 0.00 0.00 0.00 0.00 0.00 0.00 0.01 0.01 0.04 0.04 0.04 0.03 0.05 0.07 0.04 0.05 0.06 0.08 0.07 0.10 0.15 0.19 0.20 0.16 0.16 0.19 0.21 0.29 0.33 0.39 0.49 0.45 0.45 0.44 0.42 0.37 0.48 0.69 0.87 0.85 0.94 1.06 1.03
0.00 0.00 0.00 0.00 0.00 0.00 0.00 0.00 0.00 0.00 0.00 0.00 0.00 0.01 0.01 0.01 0.04 0.08 0.12 0.16 0.15 0.17 0.25 0.30 0.31 0.37 0.43 0.44 0.43 0.38 0.35 0.38 0.37 0.42 0.44 0.50 0.60 0.68 0.68 0.60 0.61 0.52 0.57 0.69 0.87 0.94 1.18 1.15 1.15
0.00 0.00 0.00 0.00 0.00 0.00 0.00 0.00 0.01 0.01 0.00 0.00 0.00 0.01 0.01 0.02 0.04 0.07 0.11 0.16 0.25 0.38 0.52 0.66 0.79 0.89 0.89 0.82 0.71 0.65 0.65 0.68 0.68 0.72 0.77 0.86 0.89 0.94 0.93 0.81 0.75 0.83 0.92 0.96 1.01 1.08 1.23 1.17 1.08
0.00 0.00 0.00 0.00 0.00 0.00 0.00 0.01 0.01 0.02 0.01 0.01 0.02 0.02 0.03 0.04 0.07 0.10 0.16 0.25 0.38 0.53 0.71 1.01 1.35 1.46 1.41 1.31 1.17 1.07 1.03 1.01 1.01 1.02 1.10 1.17 1.18 1.17 1.12 0.91 0.86 1.15 1.20 1.19 1.25 1.26 1.30 1.38 1.36
0.00 0.00 0.00 0.02 0.02 0.01 0.00 0.01 0.02 0.02 0.02 0.02 0.05 0.06 0.06 0.06 0.11 0.20 0.37 0.55 0.67 0.85 1.24 1.75 1.94 2.01 2.05 1.86 1.68 1.57 1.49 1.38 1.32 1.38 1.32 1.36 1.42 1.33 1.32 1.06 1.02 1.32 1.43 1.38 1.30 1.46 1.64 1.59 1.59
0.00 0.00 0.01 0.03 0.02 0.02 0.02 0.01 0.02 0.03 0.05 0.06 0.06 0.09 0.12 0.15 0.25 0.39 0.57 0.75 0.93 1.31 1.81 2.21 2.46 2.62 2.61 2.56 2.35 2.01 1.77 1.56 1.53 1.49 1.37 1.29 1.25 1.35 1.52 1.23 1.22 1.46 1.46 1.39 1.49 1.63 1.76 1.61 1.63
0.01 0.01 0.02 0.02 0.01 0.01 0.02 0.02 0.01 0.02 0.04 0.09 0.12 0.14 0.20 0.36 0.50 0.57 0.74 0.93 1.17 1.56 1.91 2.39 2.69 2.76 2.75 2.76 2.49 2.11 1.75 1.58 1.46 1.36 1.29 1.29 1.33 1.46 1.72 1.48 1.46 1.51 1.37 1.31 1.51 1.62 1.53 1.38 1.73
0.01 0.02 0.04 0.05 0.02 0.01 0.01 0.03 0.03 0.03 0.07 0.11 0.18 0.28 0.40 0.56 0.71 0.84 1.03 1.16 1.22 1.40 1.77 2.11 2.17 1.99 1.87 1.86 1.84 1.72 1.65 1.51 1.38 1.34 1.38 1.36 1.40 1.47 1.57 1.56 1.47 1.45 1.39 1.23 1.25 1.44 1.31 1.03 1.41
0.01 0.01 0.03 0.04 0.02 0.01 0.05 0.14 0.13 0.10 0.14 0.21 0.34 0.54 0.69 0.78 0.91 1.02 1.11 1.17 1.17 1.21 1.37 1.51 1.39 1.27 1.25 1.34 1.45 1.50 1.61 1.54 1.53 1.60 1.64 1.51 1.53 1.53 1.60 1.49 1.35 1.30 1.29 1.13 1.06 1.19 1.22 1.01 1.08
0.04 0.01 0.01 0.01 0.02 0.05 0.10 0.29 0.40 0.29 0.29 0.34 0.48 0.61 0.68 0.74 0.80 0.85 0.86 0.96 0.98 0.97 1.05 1.20 1.18 1.13 1.21 1.44 1.54 1.58 1.72 1.84 1.99 2.19 2.13 1.97 1.80 1.68 1.60 1.42 1.25 1.09 1.07 1.01 0.95 1.06 1.12 1.11 0.90
0.02 0.01 0.00 0.01 0.02 0.08 0.13 0.23 0.41 0.48 0.44 0.45 0.52 0.63 0.67 0.72 0.74 0.71 0.75 0.85 0.91 0.83 0.87 1.06 1.19 1.31 1.51 1.70 1.79 1.88 1.96 2.04 2.04 2.06 1.98 1.87 1.78 1.65 1.49 1.35 1.22 1.11 1.02 0.94 0.91 0.92 0.93 0.94 0.84
0.01 0.01 0.03 0.04 0.07 0.23 0.24 0.22 0.42 0.53 0.50 0.44 0.39 0.43 0.52 0.54 0.53 0.54 0.63 0.88 1.10 1.07 1.00 1.05 1.22 1.41 1.58 1.67 1.74 1.77 1.74 1.70 1.61 1.50 1.39 1.32 1.28 1.23 1.17 1.09 0.98 0.93 0.92 0.90 0.86 0.83 0.82 0.83 0.83
0.02 0.05 0.22 0.38 0.44 0.48 0.28 0.20 0.36 0.41 0.48 0.45 0.51 0.55 0.41 0.35 0.42 0.40 0.38 0.45 0.52 0.59 0.62 0.64 0.69 0.88 1.02 1.11 1.15 1.17 1.17 1.09 1.00 0.92 0.84 0.78 0.74 0.69 0.67 0.68 0.69 0.70 0.71 0.71 0.73 0.71 0.70 0.75 0.78
0.03 0.03 0.12 0.19 0.21 0.23 0.19 0.29 0.36 0.38 0.35 0.38 0.44 0.38 0.24 0.19 0.19 0.18 0.16 0.17 0.30 0.45 0.56 0.60 0.56 0.55 0.55 0.60 0.65 0.62 0.64 0.61 0.58 0.62 0.57 0.53 0.52 0.50 0.48 0.50 0.53 0.55 0.59 0.60 0.63 0.63 0.62 0.63 0.65
0.03 0.03 0.03 0.04 0.05 0.09 0.16 0.38 0.35 0.31 0.35 0.35 0.25 0.16 0.12 0.10 0.07 0.07 0.07 0.08 0.16 0.30 0.39 0.41 0.43 0.46 0.49 0.52 0.50 0.43 0.39 0.39 0.39 0.42 0.43 0.45 0.49 0.44 0.44 0.48 0.53 0.56 0.59 0.60 0.59 0.59 0.60 0.68 0.72
0.04 0.03 0.02 0.03 0.05 0.05 0.09 0.35 0.50 0.39 0.38 0.29 0.20 0.16 0.09 0.05 0.03 0.03 0.03 0.04 0.07 0.14 0.24 0.32 0.37 0.41 0.46 0.50 0.48 0.41 0.35 0.30 0.30 0.33 0.39 0.43 0.42 0.43 0.46 0.48 0.54 0.57 0.56 0.54 0.53 0.54 0.57 0.66 0.75
0.04 0.04 0.03 0.03 0.03 0.06 0.10 0.24 0.27 0.28 0.25 0.22 0.16 0.09 0.04 0.02 0.01 0.02 0.07 0.12 0.18 0.28 0.37 0.43 0.45 0.42 0.43 0.45 0.44 0.41 0.36 0.33 0.33 0.34 0.36 0.39 0.39 0.41 0.44 0.48 0.50 0.51 0.52 0.51 0.53 0.54 0.60 0.67 0.72
0.04 0.03 0.03 0.03 0.03 0.03 0.08 0.20 0.12 0.11 0.10 0.08 0.05 0.03 0.02 0.01 0.02 0.06 0.13 0.20 0.25 0.33 0.42 0.47 0.52 0.54 0.56 0.60 0.65 0.71 0.69 0.62 0.53 0.41 0.38 0.41 0.47 0.48 0.48 0.51 0.52 0.51 0.53 0.60 0.66 0.65 0.70 0.74 0.76

GEFSSGP_prec_meanprecacc_072.txt.gz
Total_Precipitation_Accumulation
0.00 0.02 0.10 0.16 0.17 0.30 0.30 0.15 0.06 0.02 0.01 0.00 0.00 0.00 0.00 0.00 0.02 0.05 0.00 0.00 0.00 0.00 0.00 0.01 0.01 0.00 0.00 0.00 0.00 0.00 0.00 0.01 0.00 0.00 0.00 0.01 0.01 0.00 0.00 0.01 0.01 0.01 0.01 0.01 0.01 0.01 0.01 0.00 0.00
0.00 0.01 0.07 0.11 0.25 0.56 0.36 0.12 0.04 0.01 0.01 0.00 0.00 0.00 0.00 0.00 0.00 0.00 0.00 0.00 0.00 0.00 0.00 0.00 0.01 0.00 0.00 0.00 0.00 0.00 0.01 0.01 0.01 0.01 0.01 0.01 0.01 0.01 0.01 0.01 0.01 0.01 0.01 0.01 0.01 0.01 0.00 0.00 0.00
0.00 0.00 0.04 0.09 0.23 0.41 0.23 0.08 0.04 0.01 0.01 0.01 0.01 0.01 0.00 0.00 0.00 0.00 0.00 0.00 0.00 0.00 0.00 0.00 0.00 0.00 0.00 0.00 0.01 0.01 0.01 0.01 0.01 0.01 0.01 0.01 0.01 0.01 0.01 0.01 0.01 0.01 0.01 0.01 0.00 0.00 0.00 0.00 0.01
0.00 0.00 0.01 0.04 0.10 0.17 0.13 0.08 0.05 0.03 0.02 0.01 0.01 0.01 0.01 0.00 0.00 0.00 0.00 0.00 0.00 0.00 0.00 0.00 0.00 0.00 0.00 0.00 0.01 0.01 0.01 0.01 0.01 0.01 0.01 0.01 0.02 0.01 0.02 0.01 0.01 0.01 0.01 0.01 0.01 0.01 0.00 0.00 0.01
0.00 0.00 0.00 0.02 0.04 0.13 0.14 0.10 0.06 0.04 0.02 0.01 0.01 0.02 0.02 0.01 0.00 0.00 0.00 0.00 0.00 0.00 0.00 0.00 0.00 0.00 0.00 0.00 0.01 0.01 0.01 0.01 0.01 0.01 0.01 0.01 0.01 0.02 0.02 0.01 0.01 0.01 0.01 0.01 0.01 0.01 0.01 0.01 0.01
0.00 0.00 0.00 0.01 0.03 0.07 0.10 0.08 0.06 0.05 0.02 0.01 0.01 0.02 0.03 0.01 0.00 0.00 0.00 0.00 0.00 0.00 0.00 0.00 0.01 0.00 0.00 0.00 0.01 0.01 0.01 0.01 0.01 0.01 0.01 0.01 0.01 0.02 0.02 0.03 0.02 0.02 0.02 0.02 0.02 0.01 0.02 0.02 0.02
0.00 0.00 0.00 0.00 0.01 0.03 0.06 0.07 0.06 0.04 0.03 0.03 0.03 0.04 0.04 0.04 0.01 0.00 0.00 0.00 0.00 0.00 0.00 0.00 0.00 0.00 0.00 0.00 0.01 0.01 0.01 0.01 0.01 0.01 0.01 0.01 0.01 0.03 0.04 0.06 0.05 0.04 0.04 0.04 0.03 0.02 0.02 0.02 0.03
0.00 0.00 0.00 0.00 0.01 0.01 0.02 0.03 0.04 0.03 0.03 0.03 0.05 0.06 0.09 0.06 0.01 0.00 0.00 0.00 0.00 0.00 0.00 0.00 0.01 0.00 0.00 0.00 0.01 0.01 0.01 0.01 0.01 0.01 0.01 0.01 0.01 0.03 0.05 0.06 0.08 0.11 0.11 0.11 0.08 0.05 0.04 0.04 0.04
0.00 0.00 0.00 0.00 0.00 0.00 0.01 0.02 0.02 0.02 0.02 0.02 0.06 0.09 0.07 0.04 0.02 0.01 0.01 0.02 0.02 0.01 0.01 0.01 0.01 0.01 0.01 0.01 0.01 0.02 0.02 0.02 0.02 0.02 0.02 0.03 0.02 0.03 0.11 0.15 0.20 0.22 0.24 0.23 0.19 0.15 0.14 0.14 0.08
0.00 0.00 0.00 0.00 0.00 0.00 0.00 0.01 0.01 0.01 0.04 0.07 0.13 0.14 0.08 0.06 0.03 0.01 0.03 0.05 0.05 0.05 0.04 0.04 0.03 0.02 0.02 0.02 0.03 0.03 0.03 0.05 0.04 0.06 0.10 0.13 0.18 0.15 0.10 0.21 0.40 0.46 0.53 0.50 0.45 0.45 0.35 0.24 0.18
0.00 0.00 0.00 0.00 0.00 0.00 0.00 0.00 0.00 0.01 0.03 0.12 0.22 0.25 0.13 0.10 0.07 0.03 0.04 0.07 0.13 0.17 0.14 0.08 0.05 0.05 0.05 0.05 0.04 0.04 0.05 0.12 0.12 0.12 0.20 0.32 0.31 0.23 0.19 0.22 0.41 0.55 0.62 0.50 0.68 0.80 0.53 0.51 0.64
0.00 0.00 0.00 0.00 0.00 0.00 0.00 0.00 0.00 0.01 0.01 0.03 0.07 0.17 0.26 0.23 0.19 0.15 0.11 0.16 0.26 0.26 0.20 0.14 0.11 0.10 0.11 0.13 0.11 0.11 0.12 0.17 0.19 0.25 0.28 0.39 0.41 0.34 0.31 0.36 0.39 0.48 0.57 0.73 0.87 0.98 0.90 0.92 0.90
0.00 0.00 0.00 0.00 0.00 0.00 0.00 0.00 0.00 0.01 0.01 0.02 0.02 0.05 0.11 0.21 0.20 0.18 0.23 0.37 0.35 0.22 0.16 0.18 0.20 0.24 0.28 0.30 0.30 0.27 0.27 0.28 0.31 0.40 0.43 0.47 0.57 0.53 0.51 0.50 0.51 0.49 0.63 0.87 1.06 1.06 1.13 1.23 1.17
0.00 0.00 0.00 0.00 0.00 0.00 0.00 0.00 0.01 0.01 0.01 0.01 0.02 0.03 0.04 0.09 0.15 0.19 0.25 0.33 0.38 0.36 0.41 0.45 0.47 0.55 0.60 0.60 0.55 0.48 0.45 0.48 0.48 0.54 0.56 0.61 0.74 0.81 0.79 0.71 0.73 0.64 0.71 0.85 1.06 1.18 1.44 1.40 1.35
0.00 0.00 0.00 0.00 0.00 0.00 0.00 0.01 0.03 0.03 0.02 0.02 0.03 0.04 0.05 0.07 0.11 0.15 0.20 0.27 0.40 0.55 0.70 0.81 0.94 1.05 1.09 1.02 0.88 0.80 0.81 0.82 0.83 0.86 0.89 1.01 1.09 1.14 1.10 0.95 0.86 0.92 1.02 1.09 1.17 1.28 1.49 1.43 1.31
0.00 0.00 0.00 0.00 0.00 0.00 0.01 0.04 0.05 0.06 0.06 0.04 0.05 0.05 0.07 0.08 0.13 0.18 0.25 0.36 0.50 0.66 0.83 1.13 1.49 1.60 1.54 1.46 1.33 1.24 1.19 1.15 1.14 1.16 1.22 1.30 1.36 1.38 1.32 1.08 0.97 1.25 1.32 1.31 1.39 1.42 1.49 1.57 1.57
0.00 0.00 0.01 0.03 0.02 0.01 0.02 0.10 0.15 0.13 0.12 0.08 0.09 0.09 0.09 0.09 0.15 0.25 0.42 0.62 0.73 0.92 1.31 1.83 2.02 2.09 2.11 1.93 1.76 1.64 1.58 1.47 1.40 1.46 1.40 1.44 1.53 1.48 1.48 1.20 1.11 1.40 1.54 1.50 1.42 1.60 1.79 1.74 1.73
0.01 0.01 0.02 0.04 0.04 0.05 0.07 0.11 0.16 0.22 0.26 0.24 0.15 0.13 0.14 0.17 0.27 0.41 0.61 0.79 0.98 1.36 1.85 2.24 2.49 2.66 2.65 2.60 2.39 2.06 1.81 1.60 1.57 1.54 1.43 1.35 1.31 1.41 1.60 1.32 1.31 1.58 1.63 1.58 1.67 1.80 1.95 1.80 1.82
0.02 0.03 0.08 0.07 0.05 0.09 0.14 0.20 0.24 0.24 0.25 0.27 0.24 0.20 0.23 0.38 0.51 0.59 0.75 0.94 1.19 1.58 1.93 2.41 2.72 2.79 2.77 2.79 2.51 2.13 1.77 1.60 1.48 1.38 1.31 1.31 1.36 1.49 1.75 1.53 1.53 1.60 1.52 1.50 1.68 1.80 1.73 1.58 1.95
0.03 0.06 0.10 0.12 0.08 0.10 0.17 0.35 0.42 0.32 0.32 0.31 0.30 0.36 0.43 0.57 0.71 0.84 1.04 1.17 1.22 1.41 1.78 2.12 2.17 2.00 1.87 1.87 1.85 1.73 1.66 1.52 1.38 1.34 1.38 1.36 1.41 1.48 1.59 1.60 1.53 1.54 1.51 1.37 1.44 1.69 1.56 1.27 1.66
0.06 0.06 0.06 0.10 0.11 0.15 0.27 0.51 0.58 0.42 0.39 0.40 0.45 0.60 0.73 0.79 0.92 1.03 1.12 1.17 1.17 1.21 1.37 1.51 1.39 1.27 1.25 1.34 1.45 1.51 1.62 1.54 1.54 1.60 1.65 1.51 1.53 1.54 1.61 1.52 1.38 1.33 1.35 1.22 1.22 1.42 1.48 1.28 1.32
0.09 0.04 0.03 0.04 0.08 0.19 0.34 0.60 0.77 0.61 0.55 0.52 0.56 0.67 0.72 0.75 0.81 0.85 0.86 0.96 0.98 0.97 1.05 1.20 1.18 1.13 1.21 1.44 1.54 1.58 1.72 1.84 1.99 2.19 2.13 1.98 1.82 1.70 1.61 1.43 1.27 1.11 1.09 1.04 1.02 1.17 1.28 1.29 1.10
0.04 0.03 0.03 0.03 0.06 0.15 0.24 0.44 0.72 0.81 0.69 0.57 0.59 0.67 0.69 0.72 0.75 0.71 0.75 0.85 0.91 0.83 0.87 1.07 1.19 1.31 1.52 1.71 1.81 1.89 1.97 2.05 2.05 2.07 1.99 1.88 1.79 1.65 1.50 1.36 1.23 1.12 1.04 0.97 0.95 0.99 1.03 1.07 0.99
0.03 0.04 0.07 0.07 0.10 0.28 0.30 0.35 0.65 0.72 0.65 0.58 0.47 0.46 0.52 0.54 0.53 0.55 0.63 0.88 1.10 1.07 1.00 1.05 1.22 1.41 1.58 1.68 1.75 1.78 1.74 1.71 1.61 1.50 1.39 1.32 1.29 1.24 1.18 1.09 0.99 0.94 0.94 0.95 0.92 0.89 0.91 0.92 0.94
0.03 0.07 0.26 0.43 0.51 0.58 0.34 0.36 0.62 0.58 0.58 0.51 0.55 0.56 0.41 0.36 0.42 0.40 0.38 0.45 0.52 0.59 0.62 0.64 0.69 0.88 1.02 1.12 1.16 1.18 1.17 1.10 1.00 0.92 0.85 0.79 0.74 0.70 0.67 0.69 0.70 0.71 0.72 0.73 0.75 0.74 0.74 0.82 0.87
0.04 0.06 0.17 0.24 0.30 0.39 0.38 0.72 0.73 0.50 0.40 0.41 0.46 0.39 0.24 0.20 0.19 0.19 0.16 0.18 0.31 0.45 0.56 0.60 0.56 0.55 0.56 0.60 0.65 0.62 0.64 0.61 0.58 0.63 0.57 0.53 0.53 0.50 0.48 0.51 0.54 0.56 0.59 0.61 0.64 0.64 0.64 0.65 0.69
0.04 0.04 0.04 0.06 0.10 0.22 0.36 0.73 0.70 0.42 0.39 0.37 0.26 0.16 0.13 0.10 0.07 0.07 0.07 0.08 0.16 0.30 0.39 0.41 0.43 0.46 0.49 0.52 0.50 0.43 0.39 0.39 0.39 0.43 0.43 0.45 0.49 0.44 0.45 0.49 0.54 0.57 0.60 0.61 0.59 0.60 0.61 0.69 0.74
0.04 0.04 0.03 0.04 0.07 0.11 0.24 0.52 0.67 0.46 0.41 0.33 0.21 0.16 0.10 0.06 0.03 0.03 0.03 0.04 0.07 0.14 0.24 0.32 0.37 0.41 0.46 0.50 0.48 0.41 0.35 0.30 0.30 0.34 0.40 0.43 0.42 0.43 0.46 0.48 0.55 0.58 0.57 0.55 0.54 0.55 0.57 0.66 0.76
0.04 0.04 0.03 0.03 0.04 0.07 0.16 0.31 0.29 0.29 0.26 0.23 0.16 0.09 0.04 0.02 0.01 0.02 0.07 0.12 0.18 0.28 0.37 0.43 0.45 0.42 0.43 0.45 0.44 0.41 0.36 0.33 0.33 0.34 0.37 0.39 0.39 0.41 0.45 0.48 0.51 0.52 0.53 0.53 0.55 0.56 0.61 0.67 0.72
0.04 0.03 0.03 0.03 0.03 0.03 0.09 0.22 0.13 0.11 0.11 0.08 0.05 0.03 0.02 0.01 0.02 0.06 0.13 0.20 0.25 0.33 0.42 0.47 0.52 0.54 0.56 0.60 0.65 0.71 0.69 0.62 0.53 0.41 0.38 0.42 0.47 0.48 0.49 0.51 0.53 0.51 0.54 0.61 0.68 0.67 0.71 0.76 0.77

GEFSSGP_prec_meanprecacc_078.txt.gz
Total_Precipitation_Accumulation
0.00 0.02 0.11 0.16 0.18 0.30 0.31 0.15 0.07 0.03 0.01 0.01 0.01 0.01 0.01 0.00 0.02 0.05 0.00 0.00 0.00 0.00 0.00 0.01 0.01 0.00 0.00 0.01 0.00 0.00 0.00 0.01 0.01 0.00 0.01 0.01 0.01 0.00 0.01 0.01 0.01 0.01 0.01 0.02 0.01 0.01 0.01 0.01 0.00
0.00 0.01 0.07 0.12 0.25 0.57 0.36 0.13 0.05 0.02 0.02 0.02 0.01 0.01 0.00 0.00 0.00 0.00 0.00 0.00 0.00 0.00 0.00 0.00 0.01 0.00 0.00 0.00 0.00 0.00 0.01 0.01 0.01 0.01 0.01 0.01 0.01 0.01 0.01 0.01 0.01 0.01 0.02 0.02 0.01 0.01 0.01 0.00 0.00
0.00 0.00 0.04 0.09 0.23 0.41 0.23 0.08 0.04 0.02 0.02 0.02 0.02 0.01 0.00 0.00 0.00 0.00 0.00 0.00 0.00 0.00 0.00 0.00 0.01 0.00 0.00 0.00 0.01 0.01 0.01 0.01 0.01 0.01 0.01 0.01 0.01 0.01 0.01 0.01 0.01 0.01 0.02 0.02 0.01 0.01 0.00 0.00 0.01
0.00 0.00 0.01 0.04 0.10 0.17 0.13 0.08 0.05 0.04 0.03 0.02 0.01 0.01 0.01 0.00 0.00 0.00 0.00 0.00 0.00 0.00 0.00 0.00 0.01 0.00 0.00 0.00 0.01 0.01 0.01 0.01 0.02 0.02 0.01 0.02 0.02 0.02 0.02 0.02 0.01 0.02 0.02 0.02 0.01 0.01 0.01 0.00 0.01
0.00 0.00 0.00 0.02 0.05 0.13 0.14 0.10 0.07 0.04 0.02 0.02 0.01 0.02 0.02 0.01 0.00 0.00 0.00 0.00 0.00 0.00 0.00 0.00 0.01 0.01 0.00 0.01 0.01 0.01 0.02 0.02 0.02 0.02 0.01 0.01 0.02 0.02 0.02 0.02 0.01 0.02 0.02 0.03 0.02 0.02 0.01 0.01 0.01
0.00 0.00 0.00 0.01 0.03 0.07 0.10 0.08 0.07 0.05 0.02 0.02 0.02 0.02 0.03 0.01 0.00 0.00 0.00 0.00 0.00 0.00 0.00 0.01 0.01 0.01 0.01 0.01 0.01 0.01 0.01 0.02 0.02 0.02 0.02 0.02 0.02 0.02 0.03 0.03 0.03 0.03 0.04 0.05 0.03 0.02 0.02 0.02 0.02
0.00 0.00 0.00 0.00 0.01 0.03 0.06 0.07 0.06 0.04 0.03 0.03 0.04 0.04 0.05 0.04 0.01 0.00 0.00 0.00 0.00 0.00 0.00 0.01 0.01 0.01 0.01 0.02 0.02 0.02 0.02 0.02 0.02 0.02 0.02 0.02 0.02 0.03 0.05 0.07 0.07 0.06 0.06 0.07 0.05 0.03 0.03 0.03 0.03
0.00 0.00 0.00 0.00 0.01 0.01 0.03 0.04 0.04 0.04 0.03 0.03 0.05 0.07 0.09 0.06 0.01 0.00 0.00 0.00 0.01 0.01 0.01 0.01 0.01 0.01 0.01 0.01 0.02 0.02 0.02 0.03 0.03 0.03 0.03 0.03 0.03 0.04 0.06 0.08 0.10 0.12 0.13 0.13 0.10 0.07 0.05 0.05 0.05
0.00 0.00 0.00 0.00 0.00 0.01 0.02 0.03 0.03 0.03 0.02 0.02 0.06 0.10 0.07 0.04 0.02 0.01 0.01 0.03 0.03 0.02 0.02 0.01 0.01 0.01 0.01 0.01 0.02 0.03 0.04 0.04 0.04 0.04 0.05 0.05 0.04 0.05 0.12 0.16 0.21 0.24 0.27 0.26 0.22 0.18 0.17 0.16 0.10
0.00 0.00 0.00 0.00 0.00 0.00 0.00 0.01 0.02 0.03 0.05 0.08 0.14 0.15 0.08 0.06 0.03 0.02 0.04 0.06 0.06 0.06 0.05 0.05 0.04 0.03 0.03 0.02 0.04 0.05 0.05 0.07 0.06 0.07 0.12 0.15 0.20 0.16 0.11 0.22 0.43 0.52 0.60 0.58 0.53 0.53 0.42 0.28 0.21
0.00 0.00 0.00 0.00 0.00 0.00 0.00 0.01 0.01 0.02 0.05 0.13 0.24 0.26 0.14 0.12 0.10 0.06 0.06 0.10 0.18 0.23 0.18 0.10 0.07 0.06 0.06 0.06 0.06 0.07 0.09 0.16 0.14 0.14 0.22 0.34 0.33 0.24 0.21 0.24 0.45 0.61 0.72 0.61 0.81 0.94 0.64 0.59 0.71
0.00 0.00 0.00 0.00 0.00 0.00 0.00 0.01 0.01 0.02 0.04 0.05 0.09 0.18 0.28 0.26 0.22 0.17 0.15 0.22 0.34 0.36 0.28 0.21 0.16 0.14 0.15 0.19 0.21 0.25 0.23 0.25 0.26 0.31 0.35 0.44 0.47 0.40 0.37 0.43 0.46 0.56 0.66 0.86 0.99 1.10 1.03 1.04 1.00
0.00 0.00 0.00 0.00 0.00 0.00 0.01 0.02 0.02 0.03 0.03 0.03 0.03 0.06 0.14 0.24 0.23 0.23 0.30 0.46 0.47 0.38 0.33 0.33 0.32 0.36 0.41 0.48 0.53 0.55 0.48 0.45 0.50 0.56 0.56 0.59 0.69 0.64 0.63 0.62 0.63 0.61 0.76 1.02 1.22 1.24 1.31 1.39 1.31
0.00 0.00 0.00 0.00 0.00 0.00 0.01 0.02 0.03 0.05 0.04 0.03 0.03 0.05 0.06 0.11 0.20 0.26 0.34 0.46 0.52 0.52 0.59 0.64 0.70 0.81 0.83 0.85 0.81 0.78 0.75 0.73 0.70 0.75 0.75 0.82 0.94 1.01 0.97 0.87 0.88 0.79 0.85 0.99 1.22 1.36 1.62 1.58 1.53
0.00 0.00 0.00 0.00 0.00 0.01 0.01 0.05 0.08 0.07 0.05 0.04 0.05 0.07 0.08 0.10 0.15 0.22 0.29 0.39 0.52 0.69 0.89 1.09 1.27 1.34 1.33 1.28 1.15 1.06 1.06 1.05 1.05 1.10 1.14 1.25 1.32 1.37 1.32 1.13 1.04 1.09 1.16 1.22 1.30 1.42 1.66 1.62 1.48
0.00 0.00 0.00 0.01 0.01 0.01 0.02 0.08 0.10 0.10 0.09 0.07 0.09 0.11 0.12 0.13 0.19 0.26 0.34 0.47 0.60 0.78 0.98 1.38 1.77 1.83 1.77 1.67 1.54 1.43 1.35 1.32 1.32 1.35 1.39 1.47 1.55 1.58 1.51 1.27 1.16 1.39 1.43 1.41 1.49 1.53 1.61 1.69 1.71
0.00 0.00 0.01 0.03 0.03 0.02 0.04 0.15 0.20 0.18 0.16 0.12 0.14 0.15 0.17 0.16 0.23 0.32 0.48 0.69 0.81 1.02 1.45 2.03 2.26 2.30 2.28 2.07 1.89 1.76 1.68 1.57 1.49 1.52 1.47 1.52 1.61 1.58 1.59 1.31 1.21 1.49 1.63 1.59 1.50 1.67 1.86 1.82 1.84
0.01 0.01 0.02 0.05 0.05 0.06 0.09 0.15 0.23 0.30 0.34 0.32 0.23 0.21 0.22 0.25 0.35 0.49 0.67 0.85 1.05 1.44 1.94 2.34 2.60 2.78 2.76 2.69 2.48 2.15 1.91 1.69 1.62 1.57 1.46 1.39 1.35 1.45 1.64 1.36 1.36 1.63 1.68 1.62 1.70 1.83 1.99 1.86 1.90
0.02 0.04 0.08 0.08 0.06 0.11 0.18 0.25 0.32 0.33 0.35 0.36 0.33 0.29 0.31 0.43 0.56 0.64 0.80 0.99 1.24 1.63 1.98 2.47 2.77 2.85 2.83 2.84 2.56 2.17 1.80 1.63 1.50 1.40 1.32 1.33 1.37 1.51 1.77 1.54 1.54 1.61 1.54 1.53 1.72 1.85 1.78 1.65 2.05
0.04 0.06 0.11 0.13 0.09 0.11 0.21 0.39 0.49 0.40 0.42 0.41 0.40 0.46 0.53 0.65 0.76 0.89 1.07 1.19 1.24 1.43 1.80 2.14 2.20 2.02 1.89 1.88 1.86 1.74 1.68 1.53 1.40 1.35 1.40 1.38 1.43 1.50 1.61 1.62 1.54 1.55 1.52 1.38 1.46 1.71 1.60 1.33 1.76
0.06 0.06 0.07 0.11 0.12 0.17 0.31 0.55 0.64 0.49 0.45 0.49 0.54 0.69 0.82 0.85 0.95 1.05 1.13 1.18 1.18 1.21 1.37 1.51 1.40 1.27 1.25 1.34 1.45 1.51 1.62 1.54 1.54 1.61 1.65 1.52 1.54 1.55 1.63 1.53 1.39 1.34 1.36 1.23 1.22 1.42 1.50 1.30 1.37
0.10 0.05 0.04 0.05 0.09 0.22 0.37 0.64 0.82 0.65 0.59 0.58 0.62 0.72 0.78 0.79 0.83 0.86 0.87 0.97 0.98 0.97 1.05 1.20 1.18 1.13 1.22 1.44 1.55 1.58 1.72 1.84 1.99 2.19 2.13 1.98 1.82 1.70 1.61 1.44 1.27 1.11 1.10 1.05 1.02 1.18 1.29 1.31 1.13
0.05 0.03 0.03 0.04 0.07 0.16 0.25 0.45 0.73 0.82 0.70 0.59 0.62 0.69 0.70 0.73 0.75 0.72 0.76 0.86 0.91 0.83 0.87 1.07 1.19 1.32 1.52 1.71 1.81 1.90 1.97 2.05 2.05 2.07 1.99 1.88 1.79 1.66 1.50 1.36 1.23 1.12 1.04 0.97 0.95 0.99 1.03 1.08 1.00
0.04 0.05 0.08 0.08 0.11 0.28 0.31 0.35 0.65 0.73 0.65 0.58 0.47 0.46 0.53 0.54 0.54 0.55 0.63 0.88 1.10 1.08 1.00 1.05 1.22 1.42 1.59 1.68 1.76 1.78 1.74 1.71 1.61 1.50 1.39 1.32 1.29 1.24 1.18 1.10 0.99 0.94 0.94 0.95 0.93 0.90 0.92 0.94 0.96
0.04 0.08 0.27 0.43 0.51 0.58 0.35 0.36 0.62 0.58 0.58 0.52 0.55 0.56 0.42 0.36 0.42 0.40 0.38 0.45 0.52 0.59 0.62 0.64 0.69 0.88 1.03 1.12 1.16 1.18 1.18 1.10 1.00 0.92 0.85 0.79 0.74 0.70 0.67 0.69 0.70 0.71 0.72 0.73 0.75 0.74 0.75 0.83 0.89
0.04 0.06 0.17 0.24 0.30 0.39 0.38 0.72 0.73 0.50 0.40 0.41 0.46 0.39 0.25 0.20 0.20 0.19 0.16 0.18 0.31 0.45 0.56 0.60 0.56 0.55 0.56 0.60 0.65 0.62 0.64 0.61 0.58 0.63 0.57 0.53 0.53 0.50 0.48 0.51 0.54 0.56 0.59 0.61 0.64 0.64 0.64 0.65 0.70
0.04 0.04 0.04 0.06 0.10 0.22 0.36 0.73 0.70 0.42 0.39 0.37 0.26 0.16 0.13 0.10 0.08 0.07 0.07 0.08 0.16 0.30 0.39 0.41 0.43 0.46 0.49 0.52 0.50 0.43 0.39 0.39 0.39 0.43 0.43 0.45 0.49 0.44 0.45 0.49 0.54 0.57 0.60 0.61 0.60 0.60 0.61 0.69 0.74
0.05 0.04 0.03 0.04 0.07 0.11 0.24 0.52 0.67 0.46 0.41 0.33 0.21 0.16 0.10 0.06 0.03 0.03 0.03 0.04 0.07 0.14 0.24 0.32 0.37 0.41 0.46 0.50 0.48 0.41 0.35 0.30 0.30 0.34 0.40 0.43 0.42 0.43 0.46 0.48 0.55 0.58 0.57 0.55 0.54 0.55 0.58 0.66 0.76
0.04 0.04 0.03 0.03 0.04 0.07 0.16 0.31 0.29 0.29 0.26 0.23 0.16 0.09 0.05 0.02 0.01 0.02 0.07 0.12 0.18 0.28 0.37 0.43 0.45 0.42 0.43 0.45 0.44 0.41 0.36 0.33 0.33 0.34 0.37 0.39 0.39 0.41 0.45 0.48 0.51 0.52 0.53 0.53 0.55 0.56 0.61 0.67 0.72
0.04 0.03 0.03 0.03 0.03 0.03 0.09 0.22 0.13 0.11 0.11 0.08 0.05 0.03 0.02 0.01 0.02 0.06 0.13 0.20 0.25 0.33 0.42 0.47 0.52 0.54 0.56 0.60 0.65 0.71 0.69 0.62 0.53 0.41 0.38 0.42 0.47 0.48 0.49 0.51 0.53 0.51 0.54 0.61 0.68 0.67 0.71 0.76 0.77